Location: Rometta
(44.2000°N, 10.0500°E)
Time: 12:36:47
(UTC+00:00)

Helios 1A Rocket - Pass Details

Date: 20 January 2021
Orbit: 562 x 586 km, 98.3° (Epoch: 06 March)

Event Time Altitude Azimuth Distance (km) Brightness Sun altitude
Rises 16:59:44 0° 124° (SE) 2,801 6.1 -8.4°
Reaches altitude 10° 17:02:27 10° 105° (ESE) 1,908 5.1 -8.9°
Maximum altitude 17:05:11 17° 63° (ENE) 1,492 4.4 -9.3°
Drops below altitude 10° 17:07:56 10° 22° (NNE) 1,920 5.2 -9.8°
Sets 17:10:41 0° 3° (N) 2,826 6.2 -10.3°
